Погода в Сочи

Погода в Сочи : погода сейчас, прогноз погоды и архив. Всё, что Вы хотите узнать о погоде в Сочи!

Поиск расширенной информации на нашем сайте:

Другие новости

Новости СМИ2

Главная страница сайта

Новости сайта

03.07.2017

Напоминаем, что на нашем специализированном сайте Метеоцентр.Азия вы можете получить высокодетализированные автоматические прогнозы погоды по пунктам России, СНГ и мира в авиационном формате (включающие направление и скорость ветра, видимость, явления погоды, количество и форму облачности, нижнюю и верхнюю границу облачности).


Погода в Сочи - сегодня

Время (UTC), дата Ветер
(°,м/с) 
Видим.   Явления Облачность Т
(°С)
Тd
(°С)
f(%) Тe
(°С)
Pmin
(гПа)
dP
(гПа)
Po
(мм)
O2
(г/м3)
Тmin Tmax R s Состояние
почвы
09 16.08.18 220 (ЮЗ) 20000 м    ясно 
+28.3 +20.6 63 +48  1010  756  271           
12 16.08.18 290 (З) 20000 м    1/1 1000 м 
[Cu hum]
+28   1009.3  -0.7  756             
15 16.08.18 290 (З) 7{10}  20000 м    ясно 
+27.2 +20.9 69 +48  1009.1  -0.2  756  272    +29.2       
18 16.08.18 тихо () {10}  4000 м    ясно 
+25.1 +21.7 81 +48  1009.4  0.3  756  273           
21 16.08.18 070 (В) 4000 м    1/1 300 м 
[St]
+22.9 +19.6 82 +40  1010.2  0.8  756  276           
00 17.08.18 080 (В) 4000 м    6/6 450 м 
[St]
+23.3 +20.1 82 +42  1010  -0.2  756  276           
03 17.08.18 070 (В) 20000 м    4/4 600 м 
[Sc]
+22.4 +18.6 79 +38  1010.4  0.4  757  277  +20         
06 17.08.18 040 (СВ) 20000 м    1/1 600 м 
[Cu med, cong]
+26.8 +21.1 71 +48  1010.1  -0.3  756  272           
09 17.08.18 240 (ЮЗ) 20000 м    1/1 600 м 
[Cu med, cong]
+27.6 +21.5 69 +50  1009.7  -0.4  756  271           
12 17.08.18 260 (З) 20000 м    1/1 600 м 
[Sc]
+28 +22.1 70 +51  1008.9  -0.8  755  270           
15 17.08.18 270 (З) 20000 м    1/1 600 м 
[Sc]
+27.2 +23.1 78 +53  1008.4  -0.5  755  271    +28.8       
18 17.08.18 270 (З) 4000 м    5/0 средняя 
[Ac trans]
+26 +22.3 80 +50  1008.8  0.4  755  272           
21 17.08.18 тихо ()   4000 м    9/4 1320 м средняя 
[Sc|Ac trans]
+25.1 +22.6 86 +50  1008.5  -0.3  755  273           
00 18.08.18 тихо ()   4000 м    9/4 1470 м средняя 
[Sc|Ac trans]
+24.4 +22.3 88 +48  1008.3  -0.2  755  273           
03 18.08.18 тихо ()   20000 м    5/0 средняя 
[Cu med, cong|Ac trans]
+22.8 +20.8 88 +43  1007.8  -0.5  755  275  +22.5         
06 18.08.18 290 (З) 20000 м    6/1 1000 м кучево-дожд., средняя 
[Cb cap|Ac trans]
+26.8 +21.4 72 +49  1007.5  -0.3  754  271           
09 18.08.18 100 (В) 20000 м  зарница{гроза}  9/5 600 м кучево-дожд., средняя 
[Cb cap|Ac trans]
+23.1 +19.4 80 +40  1008.7  1.2  755  276           
12 18.08.18 250 (З) 20000 м  {гроза}  4/1 1000 м верхняя 
[Cu hum|Ci fib]
+27.2 +17.4 55 +40  1007.8  -0.9  755  273           
15 18.08.18 280 (З) 20000 м    4/0 средняя 
[Ac trans]
+26 +20 70 +44  1007.8  755  273           
18 18.08.18 330 (СЗ) 4000 м    5/5 1080 м 
[Sc]
+24.1 +20 78 +43  1008.5  0.7  755  275           
21 18.08.18 070 (В) 4000 м    3/3 1000 м 
[Sc]
+22.1 +19.5 85 +39  1008.4  -0.1  755  277           
00 19.08.18 050 (СВ) 4000 м    3/3 1000 м 
[Sc]
+21.1 +18.4 85 +36  1008.8  0.3  755  278           
03 19.08.18 060 (СВ) 20000 м    1/1 1000 м 
[Cu hum]
+20 +17 83 +32  1008.8  755  280  +19.8         
06 19.08.18 040 (СВ) 20000 м    1/1 1000 м 
[Cu hum]
+26.3 +19 64 +42  1009  0.3  755  273           
09 19.08.18 170 (Ю) 20000 м    4/4 600 м 
[Cu med, cong]
+27.5 +22 72 +51  1009.5  0.5  756  271           
Время (UTC), дата Ветер
(°,м/с) 
Видим.   Явления Облачность Т
(°С)
Тd
(°С)
f(%) Тe
(°С)
Pmin
(гПа)
dP
(гПа)
Po
(мм)
O2
(г/м3)
Тmin Tmax R s Состояние
почвы

Для получения пояснительной информации подведите курсор к названию столбца.

ПОГОДА в Сочи - архив

Всё, что Вы хотите узнать о погоде в Сочи - удобно и подробно!

Выберите нужную дату (начиная с 1 января 2015* года) и нажмите кнопку "Найти".
Будут отображены архивные сводки погоды по пункту Сочи, начиная с указанной даты.


Отображать данные в формате CSV (для использования в таблицах Excel)


Внимание! Наш архив погоды предназначен исключительно для личного некоммерческого использования в познавательных целях. Если Вам необходимы официальные справки о состоянии погоды (для производственных, юридических, коммерческих и т.п. целей), обращайтесь в органы Росгидромета.

*Примечание: данная дата относится к архиву по метеостанциям СССР (Россия, СНГ, Балтия).
Архив по метеостанциям Зарубежной Европы и Азии (кроме Китая) хранится 10 дней, по другим регионам земного шара (Китай, Африка, Америка, Австралия, Океания) - 1 день.

Сочи - район местоположения метеостанции


Название, широта, долгота, высота метеостанции:
Сочи (Адлер) 43.4°ш. 39.9°д. 13 м над ур. моря [Российская Федерация]

Дополнительная информация

В oтличие oт бoльшинства пoгoдных сайтoв мы публикуем пoдрoбную метеoинфoрмацию в детальнoм прoфессиoнальнoм фoрмате.

Характеристики температуры и влажнoсти вoздуха измеряются на высoте 2 м в тени вдали oт зданий и деревьев.
Скoрoсть ветра измеряется на высoте 10 м (на урoвне рoста челoвека скoрoсть ветра ниже в 1.5-2 раза). Если метеoстанция нахoдится в гoрoде или в лесу, тo скoрoсть ветра занижена на 2-4 м/с пo сравнению с oткрытым местoм. Скoрoсть ветра над акватoриями крупных рек и oзёр, а также на вершинах хoлмoв на 2-5 м/с выше, чем в oбычных услoвиях.
Атмoсфернoе давление в разных тoчках местнoсти мoжет значительнo oтличаться oт давления на метеoстанции, в зависимoсти oт услoвий рельефа (при пoдъёме на 10 м давление пoнижается примернo на 1 мм рт.ст.).